This is the latest recevied weather packets stored in our database for station/object F4NFR-13. If no packets are shown the sender has not sent any weather packets the latest 1 day(s).
| Time | Temp. | Humidity | Pressure | Rain* | Wind** | Luminosity | Snow |
|---|---|---|---|---|---|---|---|
| 1778005318 | 12.22° C | 69% | 1011.7 hPa | 0 mm | 3.58 m/s, 30° | 46 W/m² | - |
| 1778005016 | 12.22° C | 69% | 1011.7 hPa | 0 mm | 4.92 m/s, 72° | 51 W/m² | - |
| 1778004714 | 12.22° C | 69% | 1011.7 hPa | 0 mm | 4.02 m/s, 90° | 56 W/m² | - |
| 1778004412 | 12.22° C | 69% | 1011.7 hPa | 0 mm | 4.02 m/s, 72° | 63 W/m² | - |
| 1778004109 | 12.22° C | 68% | 1011.7 hPa | 0 mm | 6.26 m/s, 33° | 71 W/m² | - |
| 1778003807 | 12.22° C | 70% | 1012 hPa | 0 mm | 4.02 m/s, 29° | 78 W/m² | - |
| 1778003504 | 12.22° C | 69% | 1011.7 hPa | 0 mm | 4.92 m/s, 29° | 86 W/m² | - |
| 1778002900 | 12.78° C | 69% | 1011.7 hPa | 0 mm | 4.02 m/s, 43° | 103 W/m² | - |
| 1778002597 | 12.78° C | 69% | 1011.7 hPa | 0 mm | 3.13 m/s, 52° | 109 W/m² | - |
| 1778002295 | 12.78° C | 70% | 1011.7 hPa | 0 mm | 3.13 m/s, 57° | 116 W/m² | - |
| 1778001690 | 12.78° C | 68% | 1011.7 hPa | 0 mm | 3.58 m/s, 37° | 131 W/m² | - |
| 1778001387 | 12.78° C | 68% | 1011.7 hPa | 0 mm | 4.02 m/s, 64° | 134 W/m² | - |
| 1778001085 | 12.78° C | 67% | 1011.7 hPa | 0 mm | 2.68 m/s, 36° | 142 W/m² | - |
| 1778000783 | 12.78° C | 66% | 1011.7 hPa | 0 mm | 4.92 m/s, 6° | 148 W/m² | - |
| 1778000481 | 12.78° C | 64% | 1011.7 hPa | 0 mm | 4.02 m/s, 11° | 155 W/m² | - |
| 1778000178 | 12.78° C | 64% | 1011.7 hPa | 0 mm | 4.02 m/s, 36° | 160 W/m² | - |
| 1777999573 | 12.78° C | 63% | 1011.7 hPa | 0 mm | 5.36 m/s, 65° | 178 W/m² | - |
| 1777999271 | 12.78° C | 62% | 1011.7 hPa | 0 mm | 4.92 m/s, 44° | 191 W/m² | - |
| 1777998969 | 12.78° C | 63% | 1011.7 hPa | 0 mm | 3.58 m/s, 21° | 214 W/m² | - |
| 1777998667 | 12.78° C | 64% | 1011.7 hPa | 0 mm | 4.47 m/s, 72° | 237 W/m² | - |
| 1777998364 | 12.78° C | 62% | 1011.7 hPa | 0 mm | 6.26 m/s, 49° | 259 W/m² | - |
| 1777998062 | 12.78° C | 63% | 1011.7 hPa | 0 mm | 6.26 m/s, 39° | 303 W/m² | - |
| 1777997457 | 12.78° C | 65% | 1011.7 hPa | 0 mm | 4.02 m/s, 97° | 249 W/m² | - |
| 1777997155 | 12.78° C | 66% | 1011.7 hPa | 0 mm | 3.13 m/s, 45° | 255 W/m² | - |
| 1777996853 | 12.78° C | 65% | 1011.7 hPa | 0 mm | 6.71 m/s, 24° | 301 W/m² | - |
* Rain latest hour (hover to see other rain measurements)
** Current wind speed in m/s (hover to see current wind gust speed)